SVA725 OPIS-OERK

Flight info

Callsign SVA725
Flight time N/A
Altitude 38000
Route KALMI DCT HANGU G325 PG T385 TAPDO G652 VEKAN/N0488F400 G652 TOKRA DCT ALROK DCT BOSOB/N0503F280 M321 NAGUB
Aircraft B77W/H-SDE2E3FGHIRWXY/L

Departure

Time 2026-05-05 22:53
Airport Islamabad International Airport (OPIS)

Arrival

Time N/A
Airport King Khalid International Airport (OERK)
Time Latitude Longitude Altitude Speed Heading
2026-05-05 22:23 33.55421 72.82818 1769 ft 0 kts 149°
2026-05-05 22:41 33.55438 72.82806 1772 ft 4 kts 149°
2026-05-05 22:41 33.55462 72.82793 1770 ft 4 kts 167°
2026-05-05 22:42 33.55488 72.82791 1773 ft 4 kts 199°
2026-05-05 22:42 33.55507 72.82806 1771 ft 1 kts 236°
2026-05-05 22:42 33.55507 72.82807 1771 ft 0 kts 236°
2026-05-05 22:44 33.55507 72.82806 1771 ft 0 kts 236°
2026-05-05 22:44 33.55504 72.82801 1771 ft 2 kts 236°
2026-05-05 22:45 33.55491 72.82778 1772 ft 5 kts 236°
2026-05-05 22:45 33.55463 72.82726 1774 ft 9 kts 237°
2026-05-05 22:45 33.55418 72.82655 1771 ft 12 kts 218°
2026-05-05 22:45 33.55345 72.82616 1772 ft 11 kts 197°
2026-05-05 22:46 33.55269 72.82596 1771 ft 10 kts 190°
2026-05-05 22:46 33.55203 72.82617 1772 ft 11 kts 131°
2026-05-05 22:46 33.55180 72.82702 1771 ft 11 kts 103°
2026-05-05 22:46 33.55163 72.82791 1771 ft 11 kts 101°
2026-05-05 22:47 33.55150 72.82880 1774 ft 11 kts 99°
2026-05-05 22:47 33.55137 72.82969 1771 ft 11 kts 101°
2026-05-05 22:47 33.55124 72.83057 1774 ft 11 kts 101°
2026-05-05 22:47 33.55109 72.83147 1774 ft 11 kts 101°
2026-05-05 22:48 33.55095 72.83237 1774 ft 11 kts 101°
2026-05-05 22:48 33.55080 72.83324 1774 ft 11 kts 102°
2026-05-05 22:48 33.55064 72.83413 1775 ft 11 kts 102°
2026-05-05 22:48 33.55049 72.83501 1774 ft 11 kts 101°
2026-05-05 22:49 33.55035 72.83590 1775 ft 11 kts 101°
2026-05-05 22:49 33.55021 72.83679 1776 ft 11 kts 99°
2026-05-05 22:49 33.55008 72.83769 1777 ft 11 kts 100°
2026-05-05 22:49 33.54995 72.83858 1776 ft 11 kts 100°
2026-05-05 22:50 33.54981 72.83947 1777 ft 11 kts 100°
2026-05-05 22:50 33.54966 72.84036 1777 ft 11 kts 102°
2026-05-05 22:50 33.54950 72.84125 1776 ft 11 kts 101°
2026-05-05 22:50 33.54936 72.84214 1777 ft 11 kts 101°
2026-05-05 22:51 33.54921 72.84303 1778 ft 11 kts 99°
2026-05-05 22:51 33.54913 72.84363 1777 ft 11 kts 99°
2026-05-05 22:51 33.54900 72.84452 1775 ft 11 kts 99°
2026-05-05 22:51 33.54839 72.84536 1778 ft 11 kts 180°
2026-05-05 22:52 33.54787 72.84527 1777 ft 12 kts 191°
2026-05-05 22:52 33.54716 72.84479 1777 ft 13 kts 245°
2026-05-05 22:52 33.54715 72.84415 1774 ft 0 kts 278°
2026-05-05 22:53 33.54723 72.84356 1776 ft 40 kts 279°
2026-05-05 22:53 33.54856 72.83517 1778 ft 163 kts 281°
2026-05-05 22:53 33.55164 72.81984 2794 ft 191 kts 285°
2026-05-05 22:53 33.55441 72.80399 4327 ft 207 kts 281°
2026-05-05 22:54 33.55697 72.78581 4799 ft 237 kts 280°
2026-05-05 22:54 33.56087 72.75869 5848 ft 255 kts 281°
2026-05-05 22:54 33.56291 72.74447 6537 ft 256 kts 278°
2026-05-05 22:54 33.56177 72.72316 7308 ft 265 kts 251°
2026-05-05 22:55 33.55138 72.70459 8221 ft 274 kts 227°
2026-05-05 22:55 33.53883 72.68733 8854 ft 283 kts 243°
2026-05-05 22:55 33.53464 72.66442 9758 ft 285 kts 277°
2026-05-05 22:55 33.53866 72.64101 10613 ft 287 kts 284°
2026-05-05 22:56 33.54207 72.61657 10996 ft 317 kts 278°
2026-05-05 22:56 33.54409 72.58879 11236 ft 351 kts 275°
2026-05-05 22:56 33.54523 72.55850 11752 ft 373 kts 274°
2026-05-05 22:56 33.54587 72.52705 12648 ft 382 kts 273°
2026-05-05 22:57 33.54631 72.49494 13678 ft 388 kts 273°
2026-05-05 22:57 33.54670 72.46237 14606 ft 393 kts 273°
2026-05-05 22:57 33.54710 72.42940 15562 ft 398 kts 274°
2026-05-05 22:57 33.54744 72.39600 16527 ft 404 kts 273°
2026-05-05 22:58 33.54757 72.36212 17493 ft 409 kts 273°
2026-05-05 22:58 33.54763 72.32789 18390 ft 415 kts 273°
2026-05-05 22:58 33.54768 72.29301 19222 ft 420 kts 273°
2026-05-05 22:58 33.54773 72.25801 20124 ft 423 kts 274°
2026-05-05 22:59 33.54778 72.22262 21046 ft 425 kts 274°
2026-05-05 22:59 33.54783 72.18713 21935 ft 428 kts 274°
2026-05-05 22:59 33.54789 72.15134 22769 ft 432 kts 275°
2026-05-05 22:59 33.54795 72.11521 23547 ft 436 kts 275°
2026-05-05 23:00 33.54801 72.04193 24917 ft 443 kts 275°
2026-05-05 23:00 33.54767 72.00486 25603 ft 447 kts 273°
2026-05-05 23:00 33.54598 71.96747 26275 ft 452 kts 271°
2026-05-05 23:01 33.54360 71.92969 26903 ft 456 kts 271°
2026-05-05 23:01 33.54102 71.89164 27463 ft 460 kts 270°
2026-05-05 23:01 33.53847 71.85337 28036 ft 463 kts 271°
2026-05-05 23:01 33.53600 71.81474 28616 ft 466 kts 271°
2026-05-05 23:02 33.53360 71.77585 29167 ft 469 kts 271°
2026-05-05 23:02 33.53126 71.73677 29658 ft 472 kts 271°
2026-05-05 23:02 33.52893 71.69743 30099 ft 474 kts 271°
2026-05-05 23:02 33.52658 71.65802 30549 ft 475 kts 271°
2026-05-05 23:03 33.52422 71.61856 31113 ft 472 kts 271°
2026-05-05 23:03 33.52187 71.57964 31730 ft 468 kts 271°
2026-05-05 23:03 33.51952 71.54088 32312 ft 465 kts 271°
2026-05-05 23:03 33.51717 71.50215 32754 ft 466 kts 271°
2026-05-05 23:04 33.51483 71.46356 33245 ft 465 kts 271°
2026-05-05 23:04 33.51249 71.42550 33800 ft 462 kts 271°
2026-05-05 23:04 33.51013 71.38722 34281 ft 459 kts 271°
2026-05-05 23:04 33.50777 71.34920 34735 ft 457 kts 271°
2026-05-05 23:05 33.50538 71.31085 35173 ft 455 kts 271°
2026-05-05 23:05 33.50305 71.27361 35620 ft 453 kts 271°
2026-05-05 23:05 33.50069 71.23601 36014 ft 451 kts 271°
2026-05-05 23:05 33.49833 71.19859 36391 ft 450 kts 271°
2026-05-05 23:06 33.49594 71.16083 36816 ft 448 kts 270°
2026-05-05 23:06 33.49358 71.12377 37209 ft 446 kts 270°
2026-05-05 23:06 33.49123 71.08719 37593 ft 445 kts 270°
2026-05-05 23:06 33.48690 71.05052 37800 ft 451 kts 259°
2026-05-05 23:07 33.47388 71.01568 37885 ft 470 kts 244°
2026-05-05 23:07 33.45350 70.98439 37908 ft 482 kts 232°
2026-05-05 23:07 33.42727 70.95877 37901 ft 492 kts 220°
2026-05-05 23:07 33.39804 70.93743 37904 ft 493 kts 218°
2026-05-05 23:08 33.33931 70.89553 37908 ft 491 kts 218°
2026-05-05 23:08 33.28112 70.85301 37891 ft 489 kts 219°
2026-05-05 23:09 33.22343 70.81013 37900 ft 488 kts 219°
2026-05-05 23:09 33.16587 70.76720 37862 ft 487 kts 219°
2026-05-05 23:10 33.10840 70.72445 37877 ft 488 kts 219°
2026-05-05 23:10 33.05069 70.68166 37869 ft 488 kts 219°
2026-05-05 23:11 32.99296 70.63888 37867 ft 489 kts 219°
2026-05-05 23:11 32.93512 70.59610 37863 ft 490 kts 219°
2026-05-05 23:12 32.87765 70.55266 37862 ft 488 kts 220°
2026-05-05 23:12 32.82057 70.50887 37852 ft 488 kts 221°
2026-05-05 23:13 32.76345 70.46527 37871 ft 488 kts 221°
2026-05-05 23:13 32.70626 70.42180 37869 ft 488 kts 221°
2026-05-05 23:14 32.64951 70.37874 37870 ft 487 kts 221°
2026-05-05 23:14 32.59173 70.33657 37855 ft 489 kts 219°
2026-05-05 23:15 32.53293 70.29622 37884 ft 488 kts 219°
2026-05-05 23:15 32.47420 70.25563 37878 ft 488 kts 219°
2026-05-05 23:16 32.41571 70.21484 37879 ft 488 kts 219°
2026-05-05 23:16 32.35714 70.17400 37875 ft 488 kts 219°
2026-05-05 23:17 32.29926 70.13248 37880 ft 487 kts 220°
2026-05-05 23:17 32.24153 70.09059 37876 ft 486 kts 220°
2026-05-05 23:18 32.18381 70.04887 37889 ft 486 kts 220°
2026-05-05 23:18 32.12602 70.00736 37905 ft 486 kts 220°
2026-05-05 23:19 32.06830 69.96595 37894 ft 486 kts 220°
2026-05-05 23:19 32.01045 69.92452 37905 ft 486 kts 220°
2026-05-05 23:20 31.95271 69.88325 37908 ft 485 kts 220°
2026-05-05 23:20 31.89504 69.84210 37919 ft 484 kts 220°
2026-05-05 23:21 31.83743 69.80104 37905 ft 484 kts 220°
2026-05-05 23:21 31.77997 69.76006 37933 ft 483 kts 220°
2026-05-05 23:22 31.72254 69.71924 37935 ft 483 kts 220°
2026-05-05 23:22 31.66533 69.67863 37946 ft 483 kts 220°
2026-05-05 23:23 31.60774 69.63779 37947 ft 484 kts 220°
2026-05-05 23:23 31.55012 69.59700 37944 ft 484 kts 220°
2026-05-05 23:24 31.49252 69.55629 37951 ft 483 kts 220°
2026-05-05 23:24 31.43503 69.51570 37939 ft 482 kts 220°
2026-05-05 23:25 31.37793 69.47464 37957 ft 476 kts 224°
2026-05-05 23:25 31.32818 69.42571 37939 ft 461 kts 235°
2026-05-05 23:26 31.28556 69.37040 37939 ft 458 kts 237°
2026-05-05 23:26 31.24259 69.31531 37939 ft 459 kts 236°
2026-05-05 23:27 31.19945 69.26045 37962 ft 459 kts 236°
2026-05-05 23:27 31.15623 69.20558 37958 ft 458 kts 236°
2026-05-05 23:28 31.11311 69.15096 37945 ft 457 kts 236°
2026-05-05 23:28 31.07035 69.09673 37957 ft 457 kts 236°
2026-05-05 23:29 31.02723 69.04215 37944 ft 458 kts 236°
2026-05-05 23:29 30.98370 68.98717 37955 ft 458 kts 236°
2026-05-05 23:30 30.94070 68.93293 37945 ft 459 kts 236°
2026-05-05 23:30 30.89738 68.87834 37946 ft 459 kts 236°
2026-05-05 23:31 30.85406 68.82383 37939 ft 459 kts 236°
2026-05-05 23:31 30.81067 68.76933 37923 ft 458 kts 236°
2026-05-05 23:32 30.76733 68.71498 37943 ft 457 kts 236°
2026-05-05 23:32 30.72408 68.66079 37942 ft 457 kts 236°
2026-05-05 23:33 30.68078 68.60663 37943 ft 457 kts 236°
2026-05-05 23:33 30.63752 68.55259 37948 ft 457 kts 236°
2026-05-05 23:34 30.59413 68.49845 37932 ft 457 kts 236°
2026-05-05 23:34 30.55083 68.44452 37962 ft 457 kts 236°
2026-05-05 23:35 30.50737 68.39047 37960 ft 458 kts 236°
2026-05-05 23:35 30.46426 68.33692 37948 ft 457 kts 236°
2026-05-05 23:36 30.42059 68.28275 37965 ft 456 kts 236°
2026-05-05 23:36 30.37755 68.22943 37959 ft 456 kts 236°
2026-05-05 23:37 30.33421 68.17580 37977 ft 456 kts 235°
2026-05-05 23:37 30.29094 68.12234 37981 ft 455 kts 235°
2026-05-05 23:38 30.24755 68.06893 37968 ft 456 kts 235°
2026-05-05 23:38 30.20377 68.01562 37936 ft 458 kts 235°
2026-05-05 23:39 30.15999 67.96238 37969 ft 456 kts 235°
2026-05-05 23:39 30.12375 67.91825 37923 ft 454 kts 235°
2026-05-05 23:40 30.08028 67.86539 37931 ft 453 kts 235°
2026-05-05 23:40 30.03731 67.81226 37933 ft 453 kts 236°
2026-05-05 23:41 29.99439 67.75891 37898 ft 453 kts 236°
2026-05-05 23:41 29.95137 67.70562 37896 ft 454 kts 235°
2026-05-05 23:42 29.90827 67.65239 37896 ft 454 kts 235°
2026-05-05 23:42 29.86507 67.59913 37895 ft 455 kts 235°
2026-05-05 23:43 29.82187 67.54590 37878 ft 455 kts 235°
2026-05-05 23:43 29.77869 67.49279 37885 ft 453 kts 235°
2026-05-05 23:44 29.73555 67.43980 37882 ft 453 kts 235°
2026-05-05 23:44 29.69252 67.38685 37908 ft 453 kts 235°
2026-05-05 23:45 29.64971 67.33415 37904 ft 454 kts 235°
2026-05-05 23:45 29.60658 67.28114 37929 ft 454 kts 235°
2026-05-05 23:46 29.56338 67.22811 37921 ft 453 kts 235°
2026-05-05 23:46 29.52039 67.17541 37944 ft 451 kts 235°
2026-05-05 23:47 29.47739 67.12281 37956 ft 453 kts 235°
2026-05-05 23:47 29.43423 67.07005 37966 ft 454 kts 235°
2026-05-05 23:48 29.39097 67.01721 37987 ft 454 kts 235°
2026-05-05 23:48 29.34767 66.96441 37981 ft 454 kts 235°
2026-05-05 23:49 29.30436 66.91169 37995 ft 454 kts 235°
2026-05-05 23:49 29.26115 66.85916 37995 ft 453 kts 235°
2026-05-05 23:50 29.21791 66.80664 38005 ft 453 kts 235°
2026-05-05 23:50 29.17467 66.75419 38012 ft 453 kts 235°
2026-05-05 23:51 29.13140 66.70177 38014 ft 453 kts 235°
2026-05-05 23:51 29.08816 66.64945 38006 ft 453 kts 235°
2026-05-05 23:52 29.04491 66.59720 38020 ft 452 kts 235°
2026-05-05 23:52 29.00192 66.54527 38010 ft 452 kts 234°
2026-05-05 23:53 28.95876 66.49311 38002 ft 451 kts 234°
2026-05-05 23:53 28.91565 66.44104 38000 ft 451 kts 234°
2026-05-05 23:54 28.87228 66.38872 38022 ft 451 kts 234°
2026-05-05 23:54 28.82910 66.33670 37991 ft 451 kts 234°
2026-05-05 23:55 28.78624 66.28514 37985 ft 451 kts 234°
2026-05-05 23:55 28.74277 66.23292 37971 ft 451 kts 234°
2026-05-05 23:56 28.69989 66.18147 37993 ft 451 kts 234°
2026-05-05 23:56 28.65661 66.12959 37985 ft 452 kts 234°
2026-05-05 23:57 28.61330 66.07776 37979 ft 452 kts 234°
2026-05-05 23:57 28.56992 66.02592 37976 ft 452 kts 234°
2026-05-05 23:58 28.52652 65.97411 37954 ft 452 kts 234°
2026-05-05 23:58 28.48318 65.92244 37948 ft 452 kts 234°
2026-05-05 23:59 28.43971 65.87066 37967 ft 452 kts 234°
2026-05-05 23:59 28.39623 65.81897 37932 ft 453 kts 234°
2026-05-06 00:00 28.35271 65.76727 37940 ft 453 kts 234°
2026-05-06 00:00 28.30902 65.71544 37916 ft 454 kts 234°
2026-05-06 00:01 28.26534 65.66370 37919 ft 455 kts 234°
2026-05-06 00:01 28.22141 65.61171 37890 ft 455 kts 234°
2026-05-06 00:02 28.17768 65.56003 37904 ft 455 kts 233°
2026-05-06 00:02 28.13399 65.50845 37902 ft 455 kts 233°
2026-05-06 00:03 28.09019 65.45681 37882 ft 455 kts 233°
2026-05-06 00:03 28.04631 65.40515 37903 ft 454 kts 233°
2026-05-06 00:04 28.00255 65.35368 37887 ft 454 kts 233°
2026-05-06 00:04 27.95873 65.30219 37888 ft 454 kts 233°
2026-05-06 00:05 27.89311 65.22517 37881 ft 453 kts 233°
2026-05-06 00:06 27.84929 65.17381 37882 ft 453 kts 233°
2026-05-06 00:06 27.80555 65.12262 37898 ft 453 kts 233°
2026-05-06 00:07 27.76177 65.07143 37892 ft 453 kts 233°
2026-05-06 00:07 27.71798 65.02031 37879 ft 453 kts 233°
2026-05-06 00:08 27.67408 64.96911 37863 ft 454 kts 233°
2026-05-06 00:08 27.63016 64.91795 37891 ft 454 kts 233°
2026-05-06 00:09 27.58619 64.86679 37901 ft 455 kts 232°
2026-05-06 00:09 27.54208 64.81556 37901 ft 456 kts 232°
2026-05-06 00:10 27.49818 64.76461 37920 ft 456 kts 232°
2026-05-06 00:10 27.45397 64.71338 37917 ft 456 kts 232°
2026-05-06 00:11 27.40974 64.66218 37915 ft 456 kts 232°
2026-05-06 00:11 27.36557 64.61111 37925 ft 455 kts 232°
2026-05-06 00:12 27.32139 64.56010 37929 ft 455 kts 232°
2026-05-06 00:12 27.27714 64.50905 37932 ft 455 kts 232°
2026-05-06 00:13 27.23287 64.45805 37939 ft 456 kts 232°
2026-05-06 00:13 27.18856 64.40707 37939 ft 456 kts 232°
2026-05-06 00:14 27.14415 64.35604 37920 ft 457 kts 232°
2026-05-06 00:14 27.09977 64.30509 37932 ft 456 kts 232°
2026-05-06 00:15 27.05539 64.25421 37946 ft 456 kts 232°
2026-05-06 00:15 27.01125 64.20365 37923 ft 457 kts 232°
2026-05-06 00:16 26.96670 64.15267 37934 ft 457 kts 232°
2026-05-06 00:16 26.92207 64.10190 37934 ft 458 kts 231°
2026-05-06 00:17 26.87709 64.05116 37925 ft 459 kts 231°
2026-05-06 00:17 26.83208 64.00046 37921 ft 459 kts 231°
2026-05-06 00:18 26.78705 63.94973 37930 ft 459 kts 231°
2026-05-06 00:18 26.74213 63.89917 37929 ft 458 kts 231°
2026-05-06 00:19 26.69717 63.84860 37924 ft 458 kts 231°
2026-05-06 00:19 26.65223 63.79811 37906 ft 458 kts 231°
2026-05-06 00:20 26.60720 63.74759 37905 ft 459 kts 231°
2026-05-06 00:20 26.56213 63.69707 37898 ft 459 kts 231°
2026-05-06 00:21 26.51696 63.64651 37893 ft 460 kts 231°
2026-05-06 00:21 26.47177 63.59600 37890 ft 460 kts 231°
2026-05-06 00:22 26.42649 63.54543 37890 ft 461 kts 231°
2026-05-06 00:22 26.38118 63.49490 37874 ft 461 kts 231°
2026-05-06 00:23 26.33621 63.44480 37876 ft 461 kts 231°
2026-05-06 00:23 26.29089 63.39436 37872 ft 460 kts 230°
2026-05-06 00:24 26.24549 63.34391 37859 ft 461 kts 230°
2026-05-06 00:24 26.20012 63.29353 37863 ft 461 kts 230°
2026-05-06 00:25 26.15466 63.24312 37856 ft 461 kts 230°
2026-05-06 00:25 26.10919 63.19276 37846 ft 462 kts 230°
2026-05-06 00:26 26.06362 63.14233 37855 ft 461 kts 230°
2026-05-06 00:26 26.01809 63.09200 37849 ft 461 kts 230°
2026-05-06 00:27 25.97267 63.04182 37830 ft 461 kts 230°
2026-05-06 00:27 25.92721 62.99152 37831 ft 461 kts 230°
2026-05-06 00:28 25.88180 62.94129 37836 ft 461 kts 230°
2026-05-06 00:28 25.84397 62.89948 37839 ft 461 kts 230°
2026-05-06 00:29 25.79845 62.84925 37828 ft 462 kts 230°
2026-05-06 00:29 25.75290 62.79904 37823 ft 462 kts 229°
2026-05-06 00:30 25.70726 62.74879 37828 ft 462 kts 229°
2026-05-06 00:30 25.66167 62.69866 37825 ft 462 kts 229°
2026-05-06 00:31 25.61608 62.64858 37826 ft 462 kts 229°
2026-05-06 00:31 25.57045 62.59852 37825 ft 462 kts 229°
2026-05-06 00:32 25.52476 62.54844 37830 ft 461 kts 229°
2026-05-06 00:32 25.47918 62.49853 37822 ft 461 kts 229°
2026-05-06 00:33 25.43349 62.44857 37830 ft 462 kts 229°
2026-05-06 00:33 25.38778 62.39864 37824 ft 462 kts 229°
2026-05-06 00:34 25.34206 62.34876 37825 ft 462 kts 229°
2026-05-06 00:34 25.29631 62.29890 37826 ft 462 kts 229°
2026-05-06 00:35 25.25054 62.24907 37816 ft 462 kts 229°
2026-05-06 00:35 25.20483 62.19937 37821 ft 462 kts 229°
2026-05-06 00:36 25.15901 62.14960 37826 ft 462 kts 229°
2026-05-06 00:36 25.11339 62.10010 37828 ft 463 kts 229°
2026-05-06 00:37 25.06716 62.05000 37828 ft 463 kts 229°
2026-05-06 00:37 25.02122 62.00026 37827 ft 463 kts 229°
2026-05-06 00:38 24.97546 61.95079 37830 ft 463 kts 229°
2026-05-06 00:38 24.92941 61.90103 37824 ft 463 kts 228°
2026-05-06 00:39 24.88337 61.85136 37825 ft 463 kts 228°
2026-05-06 00:39 24.83735 61.80176 37827 ft 463 kts 228°
2026-05-06 00:40 24.79127 61.75215 37823 ft 463 kts 228°
2026-05-06 00:40 24.74516 61.70256 37828 ft 463 kts 228°
2026-05-06 00:41 24.69906 61.65303 37829 ft 464 kts 228°
2026-05-06 00:41 24.65287 61.60346 37828 ft 464 kts 228°
2026-05-06 00:42 24.60671 61.55399 37826 ft 464 kts 228°
2026-05-06 00:42 24.56048 61.50447 37817 ft 464 kts 228°
2026-05-06 00:43 24.51426 61.45502 37825 ft 464 kts 227°
2026-05-06 00:43 24.46805 61.40564 37828 ft 464 kts 227°
2026-05-06 00:44 24.42282 61.35524 37821 ft 461 kts 234°
2026-05-06 00:44 24.38902 61.29617 37830 ft 456 kts 246°
2026-05-06 00:45 24.36656 61.23139 37831 ft 454 kts 252°
2026-05-06 00:45 24.34583 61.16584 37818 ft 455 kts 252°
2026-05-06 00:46 24.32476 61.10043 37823 ft 455 kts 252°
2026-05-06 00:46 24.30363 61.03532 37818 ft 456 kts 252°
2026-05-06 00:47 24.28237 60.96993 37820 ft 456 kts 252°
2026-05-06 00:47 24.26103 60.90440 37819 ft 456 kts 252°
2026-05-06 00:48 24.23970 60.83897 37817 ft 456 kts 252°
2026-05-06 00:48 24.21833 60.77351 37816 ft 456 kts 252°
2026-05-06 00:49 24.19691 60.70813 37810 ft 456 kts 251°
2026-05-06 00:49 24.17535 60.64263 37815 ft 457 kts 251°
2026-05-06 00:50 24.15378 60.57721 37813 ft 457 kts 251°
2026-05-06 00:50 24.13218 60.51176 37811 ft 457 kts 251°
2026-05-06 00:51 24.11057 60.44636 37810 ft 457 kts 251°
2026-05-06 00:51 24.08893 60.38098 37809 ft 457 kts 251°
2026-05-06 00:52 24.06724 60.31553 37810 ft 457 kts 251°
2026-05-06 00:52 24.04550 60.25006 37812 ft 457 kts 251°
2026-05-06 00:53 24.02376 60.18471 37808 ft 457 kts 251°
2026-05-06 00:53 24.00199 60.11935 37802 ft 458 kts 251°
2026-05-06 00:54 23.98017 60.05395 37804 ft 458 kts 251°
2026-05-06 00:54 23.95829 59.98849 37803 ft 459 kts 251°
2026-05-06 00:55 23.93647 59.92330 37800 ft 460 kts 251°
2026-05-06 00:55 23.91450 59.85774 37798 ft 461 kts 251°
2026-05-06 00:56 23.89238 59.79188 37806 ft 462 kts 251°
2026-05-06 00:56 23.87021 59.72597 37804 ft 462 kts 251°
2026-05-06 00:57 23.84800 59.66002 37799 ft 463 kts 251°
2026-05-06 00:57 23.82578 59.59414 37793 ft 463 kts 250°
2026-05-06 00:58 23.80350 59.52819 37799 ft 463 kts 250°
2026-05-06 00:58 23.78079 59.46253 37798 ft 463 kts 249°
2026-05-06 00:59 23.75708 59.39709 37798 ft 463 kts 249°
2026-05-06 00:59 23.73337 59.33188 37795 ft 463 kts 249°
2026-05-06 01:00 23.70990 59.26705 37796 ft 462 kts 249°
2026-05-06 01:00 23.68629 59.20169 37787 ft 462 kts 249°
2026-05-06 01:01 23.66268 59.13643 37783 ft 462 kts 249°
2026-05-06 01:01 23.63908 59.07129 37784 ft 463 kts 249°
2026-05-06 01:02 23.61537 59.00597 37773 ft 463 kts 249°
2026-05-06 01:02 23.59168 58.94082 37770 ft 463 kts 249°
2026-05-06 01:03 23.56792 58.87554 37769 ft 463 kts 249°
2026-05-06 01:03 23.54416 58.81039 37766 ft 463 kts 249°
2026-05-06 01:04 23.52037 58.74522 37768 ft 463 kts 249°
2026-05-06 01:04 23.49653 58.68004 37772 ft 463 kts 249°
2026-05-06 01:05 23.47269 58.61493 37791 ft 463 kts 249°
2026-05-06 01:05 23.44879 58.54976 37772 ft 463 kts 249°
2026-05-06 01:06 23.42425 58.48293 37772 ft 463 kts 249°
2026-05-06 01:06 23.40023 58.41781 37780 ft 463 kts 249°
2026-05-06 01:07 23.37555 58.35305 37780 ft 463 kts 248°
2026-05-06 01:07 23.35067 58.28825 37781 ft 464 kts 248°
2026-05-06 01:08 23.32588 58.22349 37790 ft 464 kts 248°
2026-05-06 01:08 23.30106 58.15862 37818 ft 464 kts 248°
2026-05-06 01:09 23.28043 58.10477 37819 ft 465 kts 248°
2026-05-06 01:09 23.25557 58.03994 37841 ft 465 kts 248°
2026-05-06 01:10 23.23126 57.97471 37852 ft 466 kts 250°
2026-05-06 01:10 23.20883 57.90867 37893 ft 466 kts 250°
2026-05-06 01:11 23.18645 57.84251 37898 ft 467 kts 250°
2026-05-06 01:11 23.16371 57.77626 37917 ft 468 kts 250°
2026-05-06 01:12 23.14081 57.71007 37920 ft 468 kts 250°
2026-05-06 01:12 23.11783 57.64378 37937 ft 468 kts 250°
2026-05-06 01:13 23.09489 57.57766 37926 ft 468 kts 250°
2026-05-06 01:13 23.07210 57.51207 37934 ft 467 kts 250°
2026-05-06 01:14 23.03766 57.41313 37948 ft 466 kts 250°
2026-05-06 01:14 23.01474 57.34738 37938 ft 466 kts 250°
2026-05-06 01:15 22.98994 57.28239 37942 ft 466 kts 244°
2026-05-06 01:15 22.95963 57.22020 37923 ft 466 kts 243°
2026-05-06 01:16 22.92949 57.15786 37926 ft 467 kts 243°
2026-05-06 01:16 22.89964 57.09538 37925 ft 467 kts 243°
2026-05-06 01:17 22.86977 57.03275 37901 ft 467 kts 243°
2026-05-06 01:17 22.83987 56.97018 37915 ft 467 kts 243°
2026-05-06 01:18 22.80991 56.90759 37897 ft 468 kts 243°
2026-05-06 01:18 22.77991 56.84493 37894 ft 468 kts 243°
2026-05-06 01:19 22.74990 56.78226 37882 ft 468 kts 243°
2026-05-06 01:19 22.71989 56.71969 37875 ft 468 kts 243°
2026-05-06 01:20 22.68987 56.65715 37878 ft 468 kts 243°
2026-05-06 01:20 22.65983 56.59466 37848 ft 467 kts 243°
2026-05-06 01:21 22.62981 56.53230 37857 ft 468 kts 243°
2026-05-06 01:21 22.59971 56.46982 37856 ft 468 kts 243°
2026-05-06 01:22 22.56957 56.40734 37850 ft 469 kts 243°
2026-05-06 01:22 22.53950 56.34514 37850 ft 470 kts 243°
2026-05-06 01:23 22.50890 56.28208 37845 ft 470 kts 243°
2026-05-06 01:23 22.47867 56.21985 37846 ft 470 kts 243°
2026-05-06 01:24 22.44825 56.15726 37850 ft 470 kts 243°
2026-05-06 01:24 22.41788 56.09483 37841 ft 470 kts 243°
2026-05-06 01:25 22.38745 56.03236 37844 ft 470 kts 243°
2026-05-06 01:25 22.35692 55.96998 37839 ft 469 kts 243°
2026-05-06 01:26 22.32628 55.90770 37836 ft 469 kts 243°
2026-05-06 01:26 22.29566 55.84547 37924 ft 472 kts 243°
2026-05-06 01:27 22.28026 55.81418 38269 ft 471 kts 243°
2026-05-06 01:27 22.26490 55.78300 38661 ft 469 kts 243°
2026-05-06 01:27 22.24963 55.75201 39020 ft 466 kts 243°
2026-05-06 01:27 22.23447 55.72122 39372 ft 464 kts 242°
2026-05-06 01:28 22.21930 55.69040 39703 ft 463 kts 242°
2026-05-06 01:28 22.20418 55.65968 39756 ft 466 kts 242°
2026-05-06 01:28 22.17438 55.59759 39808 ft 465 kts 247°
2026-05-06 01:29 22.15553 55.53125 39814 ft 461 kts 258°
2026-05-06 01:29 22.14802 55.46275 39814 ft 460 kts 265°
2026-05-06 01:30 22.14284 55.39413 39808 ft 459 kts 264°
2026-05-06 01:30 22.13740 55.32551 39807 ft 459 kts 264°
2026-05-06 01:31 22.13177 55.25681 39805 ft 460 kts 264°
2026-05-06 01:31 22.12605 55.18802 39802 ft 461 kts 264°
2026-05-06 01:32 22.12027 55.11904 39795 ft 462 kts 264°
2026-05-06 01:32 22.11446 55.04996 39794 ft 463 kts 264°
2026-05-06 01:33 22.10862 54.98074 39797 ft 464 kts 264°
2026-05-06 01:33 22.10273 54.91139 39797 ft 464 kts 264°
2026-05-06 01:34 22.09684 54.84223 39794 ft 464 kts 264°
2026-05-06 01:34 22.09095 54.77349 39793 ft 464 kts 264°
2026-05-06 01:35 22.08495 54.70385 39797 ft 463 kts 264°
2026-05-06 01:35 22.07900 54.63521 39789 ft 463 kts 264°
2026-05-06 01:36 22.07296 54.56569 39791 ft 462 kts 264°
2026-05-06 01:36 22.06693 54.49675 39790 ft 462 kts 264°
2026-05-06 01:37 22.06093 54.42841 39792 ft 461 kts 264°
2026-05-06 01:37 22.05484 54.35954 39786 ft 461 kts 264°
2026-05-06 01:38 22.04874 54.29074 39795 ft 461 kts 264°
2026-05-06 01:38 22.04261 54.22198 39787 ft 461 kts 264°
2026-05-06 01:39 22.03644 54.15307 39792 ft 462 kts 264°
2026-05-06 01:39 22.03025 54.08421 39786 ft 462 kts 264°
2026-05-06 01:40 22.02401 54.01523 39791 ft 462 kts 264°
2026-05-06 01:40 22.01775 53.94625 39794 ft 462 kts 264°
2026-05-06 01:41 22.01146 53.87730 39785 ft 462 kts 264°
2026-05-06 01:41 22.00514 53.80841 39785 ft 461 kts 264°
2026-05-06 01:42 21.99881 53.73970 39789 ft 461 kts 264°
2026-05-06 01:42 21.99246 53.67108 39787 ft 460 kts 263°
2026-05-06 01:43 21.98609 53.60247 39781 ft 460 kts 263°
2026-05-06 01:43 21.97969 53.53399 39784 ft 459 kts 263°
2026-05-06 01:44 21.97328 53.46562 39783 ft 459 kts 263°
2026-05-06 01:44 21.96683 53.39720 39784 ft 459 kts 263°
2026-05-06 01:45 21.96039 53.32912 39784 ft 459 kts 263°
2026-05-06 01:45 21.95385 53.26031 39784 ft 459 kts 263°
2026-05-06 01:46 21.94734 53.19221 39784 ft 460 kts 263°
2026-05-06 01:46 21.94077 53.12369 39783 ft 460 kts 263°
2026-05-06 01:47 21.93418 53.05527 39784 ft 460 kts 263°
2026-05-06 01:47 21.92755 52.98670 39783 ft 460 kts 263°
2026-05-06 01:48 21.92089 52.91820 39787 ft 460 kts 263°
2026-05-06 01:48 21.91420 52.84962 39786 ft 460 kts 263°
2026-05-06 01:49 21.90749 52.78109 39784 ft 460 kts 263°
2026-05-06 01:49 21.90341 52.71417 39779 ft 461 kts 270°
2026-05-06 01:50 21.91018 52.64548 39782 ft 463 kts 280°